COSMOS 338

Satellite information

Favourite Embed

Satellite Type and Status

PAYLOADIN ORBIT

Key statistics

Satellite COSMOS 338 at a glance.

Uptime

20173

Days in orbit

Revolutions

≈ 12.4

Per day

Orbit

LEO

Low Earth Orbit

Inclination

74.0

Latest

Satellite identification and parameters

Extended collection of information and parameters for COSMOS 338.

Object identification

Identified? True

Debris? False

Object name: COSMOS 338

International designator: 1970-036C

Object number (NORAD): 4385

Object ID (CCSDS): 4385

Country: COMMONWEALTH OF INDEPENDENT STATES (CIS)

Current information (Y/N): Y

RCS size: MEDIUM

Orbital parameters

Period: 115.815 minutes

Inclination: 74.0303 deg

SMA: 7870.5 km

Apoapsis: 1517.544 km

Periapsis: 1467.185 km

RAAN: 289.8992 deg

Eccentricy: 0.0031992

Argument of periapsis: 200.5873 deg

Mean anomaly: 225.3107 deg

Mean motion: 12.43366918 rev/day

Mean motion (dot): -0.00000018 rev/day2

B* drag term: -0.000013891 1/REarth

Two-line elements (TLE)

Creation date: July 17, 2025, 5:14 p.m.

Reference frame: TEME

Reference center: EARTH

Epoch: July 17, 2025, 8:56 a.m. UTC

TLE line 0: 0 COSMOS 338

TLE line 1: 1 04385U 70036C 25198.37264074 -.00000018 00000-0 -13891-4 0 9991

TLE line 2: 2 04385 74.0303 289.8992 0031992 200.5873 225.3107 12.43366918506379

Live tracking on map

Real-time ground track for satellite COSMOS 338.

In-orbit conjunctions

There are no conjunctions computed for COSMOS 338, at the moment. Check back to stay up to date, as we update our databases every day.

Go to all conjunctions

Associated space launch

Military communications satellites

COSMOS 338 was lifted into orbit during the mission ‘Kosmos-3M | Strela-1M 1-8’, on board a Kosmos-3M space rocket.

The launch took place on April 25, 1970, 5:09 p.m. from 132/2.

For more information about the launch, click the button.

Launch to space Kosmos-3M | Strela-1M 1-8
Kosmos-3M | Strela-1M 1-8

Agency: N/A

Status: Launch Successful

Launch date: April 25, 1970, 5:09 p.m. UTC

Rocket: Kosmos-3M

Launch pad: 132/2

Location: Plesetsk Cosmodrome, Russian Federation

...

Latest news about this satellite

There are no fresh news available about this satellite. Check back as we update our databases every day.


Newsletter sign-up

Weekly statistics, charts and insights to help you stay on top of the space industry.